星链-5825 (STARLINK-5825 )

导读

STARLINK-5825是美国SpaceX星链星座中的一颗卫星,于2023年3月3日发射入轨,属于星链网络扩容的一员。星链项目旨在构建全球卫星互联网,为全球各地提供高速宽带服务,这颗卫星承担着补充星座覆盖密度、提升网络容量的作用,助力推进星链全球网络服务的布局。

基本信息
目录编号:
55783
目录名称:
STARLINK-5825
国际标识:
2023-028AU
轨道中心:
EARTH
卫星名称:
星链-5825
卫星全名:
星链-5825 (STARLINK-5825 )
卫星状态:
在轨 (已飞行1281 天)
发射日期:
2023-03-03 UTC
国别 :
美国 (US)
星等 :
--
轨道信息
数据来源 国际轨道数据 AOE轨道数据
星历时间 2026-09-04T10:02:36+0800
18小时前
查看轨道信息
2026-09-03T23:00:00+0800
1天前
查看轨道信息
半长轴 6950.198km 6950.187km
偏心率 0.0002618 0.0002756
轨道倾角 69.999° 70.000°
近地点辐角 267.578° 269.884°
升交点赤经 114.840° 115.999°
平近点角 92.508° 128.923°
近地点 570.241km 570.134km
远地点 573.881km 573.966km
周期 96.107分钟 96.107分钟
每日圈数 14.983284 14.983322
详细信息
固有亮度:
5
最大亮度:
2.5
卫星平台:
Starlink v1.5
覆盖范围:
全球
运营商:
太空探索技术公司
运营商所在国:
美国
制造商(研发单位):
太空探索技术公司
制造商所在国:
美国
使用方式:
暂无
卫星简介
星链(Starlink)计划是由太空探索技术公司(SpaceX)提出的一个巨型低轨卫星互联网星座项目,计划在2019年至2024年间在太空搭建由约1.2万颗卫星组成的“星链”网络,其中1584颗将部署在地球上空550千米处的近地轨道,并从2020年开始工作。该卫星仍在工作。
2D轨道图
3D轨道图
轨道高度分析图
轨道倾角分析图
轨道综合分析图
查看轨道综合分析图